Miscellaneous Local Product
Issued by NWS Hastings, NE

Home | Current Version | Previous Version | Graphics & Text | Print | Product List | Glossary On
Versions: 1 2 3 4 5 6 7 8 9 10 11 12 13 14 15 16 17 18 19 20 21 22 23 24 25 26 27 28 29 30 31 32 33 34 35 36 37 38 39 40 41 42 43 44 45 46 47 48 49 50
000
AXUS43 KGID 022002
MISGRI

GID CWA HOURLY WEATHER ROUNDUP
NATIONAL WEATHER SERVICE HASTINGS NE
300 PM CDT THU JUL 02 2015

NOTE: "FAIR" INDICATES FEW OR NO CLOUDS BELOW 12,000 FEET WITH NO
SIGNIFICANT WEATHER AND/OR OBSTRUCTIONS TO VISIBILITY.

...SOUTH CENTRAL NEBRASKA...

CITY           SKY/WX    TMP DP  RH WIND       PRES   REMARKS
GRAND ISLAND   PTSUNNY   86  61  42 W8G17     29.93F
HASTINGS       MOSUNNY   83  64  52 VRB6      29.94F
KEARNEY        MOSUNNY   84  61  45 NW9       29.95F
ORD            MOSUNNY   85  59  41 N15G24    29.92F
YORK           MOSUNNY   73  68  83 E8        29.94F
AURORA         PTSUNNY   81  64  55 NE3       29.93S
LEXINGTON      SUNNY     85  62  46 NW10      29.98F
HOLDREGE       SUNNY     81  59  47 NW8       29.98F
HEBRON         MOSUNNY   81  65  59 SW3       29.93F

...NEBRASKA PANHANDLE...

CITY           SKY/WX    TMP DP  RH WIND       PRES   REMARKS
CHADRON        MOSUNNY   81  60  48 N14       30.08S
ALLIANCE       PTSUNNY   78  59  51 N8        30.10F
SCOTTSBLUFF    PTSUNNY   84  53  34 N13       30.12S
SIDNEY         MOSUNNY   80  57  45 N13G20    30.15S

...WESTERN AND NORTH CENTRAL NEBRASKA...

CITY           SKY/WX    TMP DP  RH WIND       PRES   REMARKS
VALENTINE      SUNNY     79  59  50 N15G24    30.02S
AINSWORTH      MOSUNNY   81  59  47 NW18G25   30.01S
ONEILL         CLOUDY    74  67  81 NE10      29.97R
BROKEN BOW     MOSUNNY   83  62  49 N16G22    29.97F
IMPERIAL       MOSUNNY   87  58  37 N12       30.06F
NORTH PLATTE   PTSUNNY   84  56  38 NW10G17   30.01F
MCCOOK         MOSUNNY   87  60  40 N13G21    30.00F

...EASTERN NEBRASKA...

CITY           SKY/WX    TMP DP  RH WIND       PRES   REMARKS
NORFOLK        CLOUDY    66  63  90 E10       29.96F
SO SIOUX CITY  CLOUDY    69  61  75 E13       29.97S
TEKAMAH        LGT RAIN  69  65  86 SE6       29.97R
COLUMBUS       CLOUDY    72  63  73 NE7       29.96R
ALBION         MOSUNNY   76  64  67 SE3       29.93F
OMAHA EPPLEY   CLOUDY    69  65  86 SE12      29.95F
OFFUTT AFB     CLOUDY    70  66  88 E7        29.94F
MILLARD        CLOUDY    68  65  90 E3        29.95S FOG
LINCOLN        CLOUDY    71  66  84 S10       29.94F
NEBRASKA CITY  LGT RAIN  66  65  97 NE12      29.95S
BEATRICE       CLOUDY    71  68  89 CALM      29.95R FOG
FALLS CITY     LGT RAIN  71  68  90 E8        29.92F

...NORTHERN KANSAS...

CITY           SKY/WX    TMP DP  RH WIND       PRES   REMARKS
GOODLAND       MOSUNNY   83  58  42 N12G24    30.08F
HILL CITY      LGT RAIN  87  60  40 N10       29.99F
NORTON         PTCLDY    86  55  35 NW10G16   29.98F
PHILLIPSBURG   MOSUNNY   86  63  45 W9        29.96F
SMITH CENTER   SUNNY     82  61  47 W5        29.96F
HAYS           PTSUNNY   77  63  61 W7        29.99S
RUSSELL        CLOUDY    77  70  79 SW6       29.97S
CONCORDIA      PTSUNNY   80  71  74 W5        29.93F
SALINA         CLOUDY    78  71  79 S5        29.93F
TOPEKA         CLOUDY    75  70  84 NE7       29.92F



USA.gov is the U.S. government's official web portal to all federal, state and local government web resources and services.